FW3072 Weather Reports


Display with metric or nautical units.
time (UTC)temp
F
wind
direction
speed
MPH
gust
MPH
rain 1hr
in
rain 24hr
in
rain mn
in
humidity
%
barometer
mb
20260906145205 68 359 3.0 8.0 0.00 0.00 0.00 83 1018.1
20260906144203 68 353 1.0 5.0 0.00 0.00 0.00 83 1018.0
20260906143204 68 359 2.0 9.0 0.00 0.00 0.00 84 1018.0
20260906142203 68 359 3.0 12.0 0.00 0.00 0.00 85 1018.0
20260906141205 67 359 5.0 12.0 0.00 0.00 0.00 86 1017.9
20260906140224 67 359 5.0 13.0 0.00 0.00 0.00 88 1017.9
20260906135205 67 359 5.0 12.0 0.00 0.00 0.00 89 1017.9
20260906134204 66 0 4.0 8.0 0.00 0.00 0.00 91 1017.8
20260906133204 66 359 3.0 12.0 0.00 0.00 0.00 92 1017.8
20260906132204 65 359 3.0 6.0 0.00 0.00 0.00 93 1017.7
20260906131203 65 359 3.0 8.0 0.00 0.00 0.00 94 1017.7
20260906130204 64 359 4.0 6.0 0.00 0.00 0.00 94 1017.7
20260906125224 64 359 3.0 8.0 0.00 0.00 0.00 94 1017.7
20260906124204 63 359 0.0 8.0 0.00 0.00 0.00 94 1017.6
20260906123203 62 359 2.0 5.0 0.00 0.00 0.00 94 1017.6
20260906122205 61 360 0.0 0.0 0.00 0.00 0.00 94 1017.4
20260906121206 60 360 0.0 0.0 0.00 0.00 0.00 94 1017.3
20260906120203 60 360 0.0 0.0 0.00 0.00 0.00 94 1017.3
20260906115203 60 360 0.0 0.0 0.00 0.00 0.00 93 1017.1
20260906114203 60 360 0.0 0.0 0.00 0.00 0.00 94 1017.1
20260906113225 59 360 0.0 0.0 0.00 0.00 0.00 94 1017.0
20260906112204 58 360 0.0 0.0 0.00 0.00 0.00 93 1017.1
20260906111203 58 360 0.0 0.0 0.00 0.00 0.00 93 1016.9
20260906110205 58 360 0.0 0.0 0.00 0.00 0.00 93 1016.8
20260906105203 58 360 0.0 0.0 0.00 0.00 0.00 93 1016.7
20260906104206 58 360 0.0 0.0 0.00 0.00 0.00 92 1016.5
20260906103227 59 360 0.0 0.0 0.00 0.00 0.00 93 1016.5
20260906102204 59 360 0.0 0.0 0.00 0.00 0.00 92 1016.4
20260906101203 59 360 0.0 0.0 0.00 0.00 0.00 92 1016.3
20260906100204 59 360 0.0 0.0 0.00 0.00 0.00 92 1016.3
20260906095203 59 360 0.0 0.0 0.00 0.00 0.00 92 1016.1
20260906094204 59 360 0.0 0.0 0.00 0.00 0.00 92 1016.2
20260906093204 60 360 0.0 0.0 0.00 0.00 0.00 92 1016.1
20260906092205 60 360 0.0 0.0 0.00 0.00 0.00 92 1015.8
20260906091224 60 360 0.0 0.0 0.00 0.00 0.00 92 1015.7
20260906090203 60 360 0.0 0.0 0.00 0.00 0.00 92 1015.7
20260906085203 60 360 0.0 0.0 0.00 0.00 0.00 92 1015.6
20260906084204 61 360 0.0 0.0 0.00 0.00 0.00 92 1015.5
20260906083203 61 360 0.0 0.0 0.00 0.00 0.00 92 1015.4
20260906082203 61 360 0.0 0.0 0.00 0.00 0.00 92 1015.3
20260906081203 61 360 0.0 0.0 0.00 0.00 0.00 92 1015.2
20260906080204 62 360 0.0 0.0 0.00 0.00 0.00 92 1015.2
20260906075205 62 360 0.0 0.0 0.00 0.00 0.00 91 1015.1
20260906074204 62 360 0.0 0.0 0.00 0.00 0.00 91 1015.0
20260906073227 63 360 0.0 0.0 0.00 0.00 0.00 91 1015.1
20260906072204 63 360 0.0 0.0 0.00 0.00 0.00 91 1015.0
20260906071224 63 360 0.0 0.0 0.00 0.00 0.00 91 1014.9
20260906070204 64 360 0.0 0.0 0.00 0.00 0.00 91 1015.0
20260906065203 64 360 0.0 0.0 0.00 0.00 0.00 91 1015.2
20260906064205 64 360 0.0 0.0 0.00 0.00 0.00 91 1015.2
20260906063203 64 360 0.0 0.0 0.00 0.00 0.00 91 1015.1
20260906062204 64 360 0.0 0.0 0.00 0.00 0.00 91 1015.1
20260906061203 64 360 0.0 0.0 0.00 0.00 0.00 91 1015.2
20260906060205 64 360 0.0 0.0 0.00 0.00 0.00 91 1015.1
20260906055204 64 360 0.0 0.0 0.00 0.00 0.00 91 1015.2
20260906054205 64 360 0.0 0.0 0.00 0.00 0.00 91 1015.2
20260906053204 64 360 0.0 0.0 0.00 0.00 0.00 90 1015.2
20260906052203 64 360 0.0 0.0 0.00 0.00 0.00 90 1015.2
20260906051206 64 360 0.0 0.0 0.00 0.00 0.00 90 1015.0
20260906050225 64 360 0.0 0.0 0.00 0.00 0.00 90 1015.0
20260906045225 64 360 0.0 0.0 0.00 0.00 0.00 90 1015.0
20260906044204 64 360 0.0 0.0 0.00 0.00 0.00 89 1015.0
20260906043203 64 360 0.0 0.0 0.00 0.00 0.00 89 1014.9
20260906042204 64 360 0.0 0.0 0.00 0.00 0.00 89 1015.0
20260906041203 64 360 0.0 0.0 0.00 0.00 0.00 89 1014.9
20260906040225 64 360 0.0 0.0 0.00 0.00 0.00 89 1014.8
20260906035205 64 360 0.0 0.0 0.00 0.00 0.00 89 1014.9
20260906034224 64 360 0.0 0.0 0.00 0.00 0.00 89 1014.9
20260906033203 64 360 0.0 0.0 0.00 0.00 0.00 88 1014.8
20260906032204 64 360 0.0 0.0 0.00 0.00 0.00 88 1014.7
20260906031204 64 360 0.0 0.0 0.00 0.00 0.00 88 1014.7
20260906030203 64 360 0.0 0.0 0.00 0.00 0.00 87 1014.6
20260906025205 64 360 0.0 0.0 0.00 0.00 0.00 87 1014.6
20260906024205 64 360 0.0 0.0 0.00 0.00 0.00 87 1014.7
20260906023203 64 360 0.0 0.0 0.00 0.00 0.00 86 1014.7
20260906022225 64 360 0.0 0.0 0.00 0.00 0.00 85 1014.6
20260906021225 64 360 0.0 0.0 0.00 0.00 0.00 84 1014.7
20260906015203 64 360 0.0 0.0 0.00 0.00 0.00 83 1014.4
20260906014205 64 360 0.0 0.0 0.00 0.00 0.00 82 1014.5
20260906013203 65 360 0.0 0.0 0.00 0.00 0.00 82 1014.4
20260906012225 65 360 0.0 0.0 0.00 0.00 0.00 82 1014.3
20260906011204 65 360 0.0 0.0 0.00 0.00 0.00 81 1014.3
20260906010204 66 360 0.0 0.0 0.00 0.00 0.00 81 1014.2
20260906005203 66 360 0.0 0.0 0.00 0.00 0.00 78 1014.1
20260906004204 66 360 0.0 0.0 0.00 0.00 0.00 78 1014.0
20260906003203 67 360 0.0 0.0 0.00 0.00 0.00 77 1014.1
20260906002204 67 360 0.0 0.0 0.00 0.00 0.00 76 1014.0
20260906001226 68 360 0.0 0.0 0.00 0.00 0.00 74 1013.9
20260906000226 68 360 0.0 0.0 0.00 0.00 0.00 74 1013.8
20260905235225 69 360 0.0 0.0 0.00 0.00 0.00 73 1013.8
20260905234226 70 360 0.0 0.0 0.00 0.00 0.00 70 1013.9
20260905233203 71 360 0.0 0.0 0.00 0.00 0.00 69 1014.0
20260905232204 72 360 0.0 0.0 0.00 0.00 0.00 68 1014.0
20260905231203 72 359 0.0 3.0 0.00 0.00 0.00 67 1013.9
20260905230204 72 359 0.0 5.0 0.00 0.00 0.00 66 1014.0
20260905225204 73 359 3.0 5.0 0.00 0.00 0.00 64 1013.9
20260905224204 73 359 3.0 6.0 0.00 0.00 0.00 64 1013.9
20260905223205 73 359 0.0 2.0 0.00 0.00 0.00 64 1013.8
20260905222203 73 359 3.0 6.0 0.00 0.00 0.00 64 1013.8
20260905221204 73 359 3.0 6.0 0.00 0.00 0.00 64 1013.9
20260905215204 73 360 0.0 4.0 0.00 0.00 0.00 65 1013.7
20260905214204 73 360 0.0 4.0 0.00 0.00 0.00 64 1013.6
20260905213204 73 359 3.0 9.0 0.00 0.00 0.00 64 1013.6
20260905212204 74 359 3.0 8.0 0.00 0.00 0.00 63 1013.5
20260905211204 74 359 1.0 8.0 0.00 0.00 0.00 64 1013.5
20260905210225 74 359 5.0 10.0 0.00 0.00 0.00 63 1013.4
20260905205206 74 359 3.0 9.0 0.00 0.00 0.00 63 1013.4
20260905204204 75 359 1.0 10.0 0.00 0.00 0.00 64 1013.4
20260905203205 74 359 1.0 6.0 0.00 0.00 0.00 64 1013.4
20260905202204 74 359 3.0 8.0 0.00 0.00 0.00 64 1013.4
20260905201203 73 359 3.0 5.0 0.00 0.00 0.00 64 1013.4
20260905200204 73 359 4.0 8.0 0.00 0.00 0.00 66 1013.5
20260905195203 73 360 0.0 4.0 0.00 0.00 0.00 65 1013.5
20260905194225 74 359 0.0 10.0 0.00 0.00 0.00 64 1013.6
20260905193225 74 359 4.0 8.0 0.00 0.00 0.00 64 1013.5
20260905192204 73 360 0.0 5.0 0.00 0.00 0.00 65 1013.5
20260905191204 74 359 0.0 6.0 0.00 0.00 0.00 65 1013.7
20260905190203 76 359 4.0 8.0 0.00 0.00 0.00 63 1013.9
20260905185204 76 1 1.0 8.0 0.00 0.00 0.00 63 1013.9
20260905184204 76 359 4.0 6.0 0.00 0.00 0.00 63 1014.0
20260905183204 76 359 3.0 11.0 0.00 0.00 0.00 62 1013.9
20260905182204 76 359 3.0 10.0 0.00 0.00 0.00 64 1013.9
20260905181225 76 359 1.0 6.0 0.00 0.00 0.00 64 1013.7
20260905180203 75 7 2.0 5.0 0.00 0.00 0.00 67 1013.6
20260905175203 75 360 0.0 4.0 0.00 0.00 0.00 66 1013.7
20260905174205 75 0 1.0 8.0 0.00 0.00 0.00 66 1013.6
20260905173204 74 359 3.0 11.0 0.00 0.00 0.00 66 1013.7
20260905172225 74 359 3.0 5.0 0.00 0.00 0.00 66 1013.7
20260905171205 74 359 2.0 9.0 0.00 0.00 0.00 65 1013.8
20260905170204 74 359 2.0 6.0 0.00 0.00 0.00 66 1013.7
20260905165203 74 359 3.0 10.0 0.00 0.00 0.00 67 1013.8
20260905164226 73 359 3.0 11.0 0.00 0.00 0.00 68 1013.7
20260905163203 73 359 3.0 5.0 0.00 0.00 0.00 73 1013.8
20260905162204 73 359 1.0 8.0 0.00 0.00 0.00 71 1013.9
20260905161226 72 359 3.0 6.0 0.00 0.00 0.00 73 1013.8
20260905160205 72 1 5.0 12.0 0.00 0.00 0.00 74 1013.9
20260905155204 71 0 4.0 11.0 0.00 0.00 0.00 74 1014.0
20260905154203 71 0 4.0 9.0 0.00 0.00 0.00 76 1014.0
20260905153204 70 359 0.0 6.0 0.00 0.00 0.00 77 1013.9
20260905152224 70 0 2.0 6.0 0.00 0.00 0.00 78 1014.0
20260905151205 70 359 2.0 9.0 0.00 0.00 0.00 80 1014.2
20260905150204 69 359 5.0 10.0 0.00 0.00 0.00 80 1014.2
20260905145226 68 359 2.0 10.0 0.00 0.00 0.00 82 1014.1